[[{"header":{"parameterUnit":"m.s-1","parameterCategory":1,"la1":30.2991,"la2":30.254,"lo1":-89.0895,"lo2":-89.0444,"dy":0.0017,"dx":0.0017,"nx":28,"ny":28,"refTime":"2024-02-25T09:00:00:Z","depth":0,"parameterNumber":2,"parameterNumberName":"U-component_of_WINDS"},"data":[0,0,0,0,0,0,0,0,0,0,0,0,0,0,0,0,0,0,0,0,0,0,0,0,0,0,0,0,0,0,0,0,0,0,0,0,0,0,0,0,0,0,0,0,0,0,0,0,0,0,0,0,0,0,0,0,0,0,-0.9727,-0.9726,0,-0.9625,-0.9624,-0.9623,-0.9552,-0.9551,-0.9551,-0.955,-0.9441,-0.9439,-0.9437,0,0,0,0,0,0,0,0,0,0,0,0,0,-0.9856,-0.9854,-0.9727,-0.9726,-0.9724,-0.9625,-0.9624,-0.9623,-0.9552,-0.9551,-0.9551,-0.955,-0.9442,-0.9439,-0.9437,0,0,0,0,0,0,0,0,0,0,0,0,0,-0.9781,-0.9853,-0.9727,-0.9677,-0.9672,-0.9626,-0.9624,-0.9622,-0.9552,-0.9551,-0.955,-0.955,-0.9443,-0.944,-0.9436,-0.943,0,0,-0.9425,-0.9424,0,0,0,0,0,0,0,0,-0.9786,-0.9777,-0.9686,-0.9681,-0.9674,-0.96,-0.9629,-0.9558,-0.9552,-0.9597,-0.955,-0.9549,-0.9495,-0.9487,-0.9469,-0.9425,-0.942,-0.9425,-0.9423,-0.9421,-0.942,0,0,0,0,0,0,0,-0.9791,-0.9781,-0.9686,-0.9685,-0.9678,-0.9659,-0.9647,-0.9615,-0.9552,-0.9593,-0.9588,-0.9577,-0.9491,-0.9473,-0.9466,-0.9419,-0.9425,-0.9422,-0.942,-0.9418,-0.9364,-0.9364,0,0,0,0,0,0,-0.9804,-0.9785,-0.969,-0.9683,-0.9729,-0.9657,-0.9644,-0.9625,-0.9552,-0.954,-0.9578,-0.9574,-0.948,-0.9471,-0.9462,-0.9449,-0.9421,-0.9418,-0.9416,-0.9363,-0.9364,-0.9364,0,0,0,0,0,0,-0.9808,-0.9797,-0.9694,-0.9733,-0.9718,-0.9656,-0.9635,-0.9623,-0.9605,-0.954,-0.9528,-0.9571,-0.9479,-0.9467,-0.9439,-0.9445,-0.9416,-0.9413,-0.9362,-0.9363,-0.9364,-0.9424,0,0,0,0,0,0,-0.9812,-0.9798,-0.9796,-0.9734,-0.9717,-0.9673,-0.9635,-0.9622,-0.9599,-0.9594,-0.9531,-0.9519,-0.9477,-0.9445,-0.9435,-0.9439,-0.941,-0.9361,-0.9362,-0.9364,-0.9421,-0.9427,-0.9432,0,0,0,0,0,-0.9816,-0.9816,-0.9796,-0.9785,-0.9713,-0.9674,-0.9664,-0.9617,-0.96,-0.9597,-0.9555,-0.9521,-0.9446,-0.9442,-0.9431,-0.9434,-0.936,-0.9362,-0.9364,-0.9419,-0.9426,-0.9432,0,0,0,0,0,0,-0.9878,-0.9807,-0.9784,-0.9764,-0.9726,-0.9662,-0.9656,-0.9626,-0.959,-0.9586,-0.9528,-0.9514,-0.9491,-0.946,-0.9457,-0.9424,-0.9399,-0.9399,-0.9445,-0.9451,-0.9457,-0.9464,-0.9407,0,0,0,0,0,-0.989,-0.9866,-0.9804,-0.9792,-0.9775,-0.9719,-0.97,-0.9667,-0.9625,-0.9608,-0.9564,-0.9523,-0.949,-0.9469,-0.9435,-0.9418,-0.9402,-0.9414,-0.942,-0.9424,-0.9424,-0.9411,-0.9416,-0.937,-0.937,-0.937,0,0,-0.9913,-0.9871,-0.9859,-0.9804,-0.977,-0.9745,-0.9706,-0.9681,-0.9661,-0.9603,-0.9574,-0.9541,-0.9491,-0.9468,-0.9455,-0.9441,-0.9434,-0.9426,-0.9431,-0.9427,-0.9413,-0.9418,-0.9422,-0.9371,-0.9371,-0.937,0,0,-0.9942,-0.9909,-0.9895,-0.9863,-0.9814,-0.9777,-0.9774,-0.9715,-0.9692,-0.9662,-0.9618,-0.9594,-0.9538,-0.9504,-0.948,-0.9498,-0.9465,-0.9489,-0.9516,-0.9505,-0.9508,-0.9511,-0.9516,-0.9519,-0.9489,-0.9489,-0.9489,0,-0.9976,-0.9938,-0.9891,-0.9869,-0.9845,-0.9795,-0.978,-0.975,-0.9692,-0.9676,-0.9662,-0.9592,-0.9554,-0.9522,-0.9527,-0.951,-0.9503,-0.9495,-0.9512,-0.9514,-0.9516,-0.9521,-0.9523,-0.9492,-0.9492,-0.9492,-0.9491,0,-0.9982,-0.9957,-0.9951,-0.9898,-0.9874,-0.9856,-0.9804,-0.9786,-0.9756,-0.9721,-0.969,-0.9645,-0.96,-0.9591,-0.9561,-0.9555,-0.9547,-0.9524,-0.9496,-0.9525,-0.9527,-0.9529,-0.9497,-0.9496,-0.9495,-0.9494,0,0,-1.0045,-0.9968,-0.9966,-0.9942,-0.9885,-0.9863,-0.9842,-0.9801,-0.9785,-0.9748,-0.9727,-0.9683,-0.9661,-0.9633,-0.9599,-0.9589,-0.9605,-0.9566,-0.9564,-0.9574,-0.9594,-0.9611,-0.9614,-0.9584,-0.9585,-0.9585,-0.9598,0,-1.0064,-1.0025,-0.9983,-0.9958,-0.9933,-0.9885,-0.9867,-0.983,-0.9797,-0.9769,-0.9732,-0.9701,-0.9675,-0.9658,-0.9647,-0.9606,-0.9608,-0.9605,-0.9563,-0.9562,-0.9575,-0.9616,-0.9633,-0.9648,-0.9599,-0.9599,-0.9599,0,-1.008,-1.0046,-1.002,-0.9965,-0.9953,-0.9938,-0.9896,-0.9872,-0.9828,-0.9805,-0.9776,-0.9739,-0.9714,-0.9693,-0.9656,-0.9654,-0.9635,-0.9613,-0.9612,-0.9604,-0.9581,-0.9607,-0.9652,-0.9653,-0.9601,-0.9601,-0.9601,0,-1.0126,-1.0074,-1.0051,-1.0032,-0.9969,-0.9959,-0.9932,-0.9887,-0.9866,-0.9829,-0.9814,-0.9775,-0.9753,-0.9724,-0.9678,-0.9667,-0.9645,-0.962,-0.9624,-0.9625,-0.9619,-0.9619,-0.9659,-0.9611,-0.9611,-0.9611,-0.9611,0,-1.015,-1.0135,-1.0072,-1.0057,-1.0039,-0.9991,-0.9974,-0.9942,-0.9904,-0.9881,-0.9838,-0.9818,-0.976,-0.9732,-0.9697,-0.9671,-0.9662,-0.9641,-0.9631,-0.9643,-0.9646,-0.9628,-0.9625,-0.9611,-0.9611,-0.9611,-0.9611,0,-1.0198,-1.0155,-1.0127,-1.007,-1.0056,-1.0045,-0.9995,-0.9979,-0.9945,-0.9917,-0.9908,-0.9853,-0.9819,-0.9771,-0.9721,-0.9697,-0.9676,-0.9662,-0.9691,-0.9685,-0.969,-0.969,-0.9718,-0.9718,-0.9672,-0.9673,-0.9673,0,-1.0215,-1.0203,-1.0146,-1.0129,-1.0104,-1.0077,-1.0055,-1.0007,-0.9985,-0.9936,-0.9925,-0.9888,-0.9855,-0.9803,-0.9757,-0.9719,-0.9702,-0.9715,-0.9696,-0.9709,-0.97,-0.9701,-0.9699,-0.9719,-0.9719,-0.972,-0.9721,0,-1.025,-1.023,-1.02,-1.0164,-1.014,-1.0108,-1.0074,-1.0063,-1.0007,-0.9985,-0.9951,-0.9926,-0.9877,-0.9839,-0.9796,-0.9766,-0.9733,-0.9728,-0.9726,-0.9737,-0.9754,-0.9743,-0.9701,-0.9726,-0.9726,-0.9725,-0.9725,-0.9725,-1.0281,-1.0268,-1.0226,-1.0195,-1.0165,-1.0135,-1.0117,-1.0082,-1.0053,-1.001,-0.9983,-0.995,-0.9906,-0.9844,-0.9817,-0.9789,-0.9775,-0.9773,-0.9772,-0.9772,-0.9776,-0.9761,-0.9781,-0.978,-0.978,-0.978,-0.978,0,-1.0312,-1.0283,-1.0256,-1.0211,-1.0186,-1.0161,-1.0123,-1.0103,-1.0075,-1.0038,-1.0008,-0.9968,-0.9932,-0.9886,-0.9846,-0.9833,-0.9817,-0.9824,-0.9823,-0.9816,-0.9791,-0.9795,-0.9837,-0.9837,-0.9837,-0.9837,-0.9837,-0.9837,-1.0325,-1.0301,-1.0277,-1.0238,-1.0208,-1.0176,-1.0157,-1.0128,-1.0099,-1.0057,-1.0028,-0.9998,-0.9957,-0.9914,-0.988,-0.9867,-0.9854,-0.9865,-0.9847,-0.9824,-0.9818,-0.9813,-0.9817,-0.9863,-0.9863,-0.9875,-0.9875,-0.9875]},{"header":{"parameterUnit":"m.s-1","parameterCategory":1,"la1":30.2991,"la2":30.254,"lo1":-89.0895,"lo2":-89.0444,"dy":0.0017,"dx":0.0017,"nx":28,"ny":28,"refTime":"2024-02-25T09:00:00:Z","depth":0,"parameterNumber":3,"parameterNumberName":"V-component_of_WINDS"},"data":[0,0,0,0,0,0,0,0,0,0,0,0,0,0,0,0,0,0,0,0,0,0,0,0,0,0,0,0,0,0,0,0,0,0,0,0,0,0,0,0,0,0,0,0,0,0,0,0,0,0,0,0,0,0,0,0,0,0,3.914,3.914,0,3.9143,3.9143,3.9143,3.9141,3.9141,3.9141,3.9141,3.9145,3.9145,3.9145,0,0,0,0,0,0,0,0,0,0,0,0,0,3.9131,3.9131,3.914,3.914,3.914,3.9143,3.9143,3.9143,3.9141,3.9141,3.9141,3.9141,3.9145,3.9145,3.9145,0,0,0,0,0,0,0,0,0,0,0,0,0,3.9135,3.9131,3.914,3.9139,3.9139,3.9143,3.9143,3.9143,3.9141,3.9141,3.9141,3.9141,3.9145,3.9145,3.9145,3.9151,0,0,3.9146,3.9147,0,0,0,0,0,0,0,0,3.9134,3.9135,3.9139,3.9139,3.9139,3.9142,3.9142,3.9146,3.9141,3.914,3.9141,3.9141,3.9144,3.9144,3.9145,3.9151,3.9151,3.9146,3.9147,3.9147,3.9147,0,0,0,0,0,0,0,3.9134,3.9135,3.9141,3.9139,3.9139,3.9139,3.9139,3.9143,3.9143,3.914,3.914,3.9141,3.9144,3.9145,3.9146,3.9151,3.9146,3.9147,3.9147,3.9147,3.9161,3.9161,0,0,0,0,0,0,3.9134,3.9135,3.9141,3.9141,3.9136,3.9139,3.9139,3.9141,3.9143,3.9143,3.9141,3.9141,3.9145,3.9145,3.9146,3.9152,3.9147,3.9147,3.9147,3.9161,3.9161,3.9161,0,0,0,0,0,0,3.9134,3.9134,3.9141,3.9138,3.9139,3.9139,3.9141,3.9141,3.9142,3.9143,3.9143,3.9142,3.9145,3.9145,3.9149,3.9152,3.9147,3.9147,3.9161,3.9161,3.9161,3.9165,0,0,0,0,0,0,3.9133,3.9134,3.9136,3.9138,3.9139,3.9144,3.9141,3.9141,3.9143,3.9143,3.9144,3.9145,3.9144,3.9149,3.915,3.9153,3.9148,3.9161,3.9161,3.9161,3.9165,3.9166,3.9166,0,0,0,0,0,3.9133,3.9137,3.9136,3.9137,3.9141,3.9145,3.9145,3.9145,3.9143,3.9145,3.9146,3.9144,3.9152,3.9149,3.915,3.9153,3.916,3.9161,3.9161,3.9165,3.9165,3.9166,0,0,0,0,0,0,3.9136,3.9137,3.9136,3.9141,3.9143,3.9144,3.9147,3.9146,3.9148,3.9148,3.9147,3.9148,3.9152,3.9153,3.9151,3.9159,3.9156,3.9156,3.9158,3.9159,3.916,3.916,3.9148,0,0,0,0,0,3.9137,3.9139,3.9141,3.9145,3.9145,3.9146,3.9147,3.9147,3.9149,3.915,3.9151,3.9152,3.9155,3.9157,3.916,3.9165,3.9166,3.9167,3.9168,3.9169,3.9169,3.9173,3.9174,3.9163,3.9163,3.9163,0,0,3.9139,3.914,3.9142,3.9145,3.9146,3.9149,3.9147,3.915,3.9152,3.915,3.9154,3.9155,3.9157,3.9162,3.9164,3.9163,3.9172,3.9169,3.917,3.917,3.9173,3.9174,3.9175,3.9163,3.9163,3.9163,0,0,3.9145,3.9146,3.915,3.9151,3.9153,3.9153,3.9154,3.9156,3.9156,3.916,3.9159,3.9162,3.9167,3.9168,3.917,3.9177,3.9176,3.9177,3.9181,3.9185,3.9185,3.9186,3.9189,3.919,3.9178,3.9178,3.9178,0,3.9148,3.9152,3.9152,3.9155,3.9157,3.9155,3.9159,3.916,3.9163,3.9164,3.9162,3.9169,3.917,3.9175,3.9177,3.9178,3.9179,3.9177,3.9185,3.9186,3.9187,3.919,3.9191,3.9178,3.9178,3.9178,3.9178,0,3.9155,3.9158,3.9161,3.9164,3.9166,3.917,3.917,3.9172,3.9171,3.9172,3.9176,3.9178,3.9181,3.9182,3.9182,3.9188,3.9187,3.9185,3.9183,3.9188,3.9191,3.9192,3.9178,3.9178,3.9178,3.9178,0,0,3.9163,3.9166,3.9167,3.9168,3.9171,3.9173,3.9177,3.918,3.9182,3.9184,3.9187,3.9191,3.919,3.9191,3.9191,3.9194,3.92,3.9192,3.9192,3.9194,3.9208,3.9209,3.921,3.9199,3.9199,3.9199,3.9208,0,3.9169,3.9176,3.9176,3.9182,3.9185,3.9184,3.9187,3.9189,3.9189,3.9192,3.9193,3.9196,3.9194,3.9195,3.9198,3.9199,3.9203,3.9198,3.9203,3.9203,3.9203,3.9212,3.9213,3.9221,3.9209,3.9209,3.9209,0,3.9178,3.918,3.9187,3.9189,3.919,3.9193,3.9196,3.9199,3.9201,3.9201,3.9203,3.9203,3.9207,3.9204,3.9209,3.9206,3.9208,3.9209,3.9209,3.921,3.9207,3.9214,3.9223,3.9225,3.921,3.921,3.921,0,3.9184,3.9188,3.9193,3.9194,3.9197,3.9199,3.92,3.9202,3.9204,3.9207,3.9208,3.9211,3.9213,3.9215,3.9216,3.9213,3.9222,3.9219,3.9223,3.9223,3.9225,3.9225,3.9236,3.9225,3.9225,3.9225,3.9225,0,3.9191,3.9195,3.9196,3.9199,3.9204,3.9203,3.9208,3.9209,3.9211,3.9214,3.9213,3.9216,3.9216,3.9219,3.922,3.9225,3.9225,3.9226,3.9226,3.9227,3.9227,3.9228,3.9228,3.9226,3.9226,3.9225,3.9225,0,3.9198,3.9199,3.9204,3.9206,3.9207,3.921,3.9212,3.9215,3.9216,3.922,3.9221,3.9222,3.9226,3.9226,3.923,3.9231,3.9237,3.9236,3.9237,3.9237,3.9241,3.9241,3.9254,3.9256,3.9243,3.9243,3.9244,0,3.9203,3.9207,3.9209,3.9211,3.9213,3.9216,3.9218,3.9218,3.9221,3.9224,3.9226,3.923,3.9233,3.9239,3.9241,3.9244,3.9244,3.9248,3.9244,3.9245,3.9245,3.9245,3.9245,3.9249,3.9249,3.9249,3.9249,0,3.9212,3.9213,3.9216,3.9219,3.9222,3.9224,3.9227,3.9229,3.9229,3.9232,3.9236,3.9238,3.9243,3.9247,3.925,3.9252,3.9251,3.9251,3.9252,3.9253,3.9253,3.9253,3.9239,3.925,3.925,3.925,3.925,3.925,3.9219,3.9222,3.9225,3.9229,3.923,3.9233,3.9236,3.9237,3.924,3.9244,3.9244,3.9248,3.9251,3.9256,3.9257,3.9261,3.926,3.9261,3.9262,3.9263,3.9263,3.9252,3.9262,3.9262,3.9262,3.9262,3.9262,0,3.9229,3.923,3.9234,3.9238,3.9241,3.9239,3.9242,3.9245,3.9249,3.9251,3.9254,3.9259,3.9263,3.9265,3.9269,3.9271,3.9271,3.9273,3.9273,3.9273,3.9264,3.9263,3.9273,3.9273,3.9273,3.9273,3.9273,3.9273,3.9234,3.924,3.924,3.9247,3.9248,3.9253,3.9255,3.9257,3.9259,3.9265,3.9268,3.9269,3.9271,3.9275,3.9279,3.9279,3.9281,3.9283,3.9283,3.9275,3.9274,3.9273,3.9272,3.9283,3.9283,3.9292,3.9292,3.9292]}]]